Bowling Green, KY

12:43 PM CDT on August 22, 2017 (GMT -0500)
Bowling Green-Warren County Regional

Weather History for KBWG - January, 2014

Change the Weather History Date:

Thursday, January 2, 2014

  Actual Average Record
Temperature  
Mean Temperature 30 °F 36 °F  
Max Temperature 43 °F 45 °F 74 °F (2006)
Min Temperature 17 °F 27 °F -5 °F (1887)
Degree Days  
Heating Degree Days 35 29  
Month to date heating degree days 65 58  
Since 1 July heating degree days 1752 1642  
Cooling Degree Days 0 0  
Month to date cooling degree days 0 0  
Year to date cooling degree days 0 0  
Moisture  
Dew Point 25 °F    
Average Humidity 84    
Maximum Humidity 100    
Minimum Humidity 67    
Precipitation  
Precipitation 0.11 in 0.12 in 1.85 in (1966)
Month to date precipitation 0.11 0.24  
Year to date precipitation 0.11 0.24  
Snow  
Snow 0.50 in 0.10 in 0.50 in (2014)
Month to date snowfall 0.5 0.2  
Since 1 July snowfall 1.7 1.4  
Snow Depth 0.00 in    
Sea Level Pressure  
Sea Level Pressure 30.06 in    
Wind  
Wind Speed 9 mph (NW)    
Max Wind Speed 22 mph    
Max Gust Speed 32 mph    
Visibility 5 miles    
Events Fog , Rain , Snow    
T = Trace of Precipitation, MM = Missing Value Source: NWS Daily Summary

Daily Weather History Graph

Daily Weather History Graph

Search for Another Location

Airport or City:

Trip Planner

Search our weather history database for the weather conditions in past years. The results will help you decide how hot, cold, wet, or windy it might be!

Date:

Astronomy

Jan. 02, 2014 Rise Set
Actual Time 6:59 AM CST 4:40 PM CST
Civil Twilight 6:30 AM CST 5:09 PM CST
Nautical Twilight 5:57 AM CST 5:41 PM CST
Astronomical Twilight 5:26 AM CST 6:13 PM CST
Moon 7:42 AM CST (1/2) 6:33 PM CST (1/2)
Length of Visible Light 10h 39m
Length of Day
9h 41m
Waxing Crescent, 3% of the Moon is Illuminated
Jan 2
Waxing Crescent
Jan 7
First Quarter
Jan 15
Full
Jan 23
Last Quarter
Jan 30
New

Hourly Weather History & Observations

Time (CST) Temp. Windchill Dew Point Humidity Pressure Visibility Wind Dir Wind Speed Gust Speed Precip Events Conditions
12:53 AM 39.9 °F - 34.0 °F 79% 30.00 in 10.0 mi Calm Calm - 0.01 in Rain Light Rain
1:50 AM 37.4 °F 34.9 °F 35.6 °F 93% 29.97 in 5.0 mi ESE 3.5 mph - 0.03 in Rain Light Rain
1:53 AM 37.9 °F 34.4 °F 37.0 °F 97% 29.98 in 6.0 mi ESE 4.6 mph - 0.03 in Rain Light Rain
2:53 AM 37.9 °F 35.5 °F 37.0 °F 97% 29.94 in 4.0 mi SE 3.5 mph - 0.01 in   Overcast
3:23 AM 39.0 °F - 37.9 °F 96% 29.92 in 3.0 mi Calm Calm - N/A   Overcast
3:25 AM 39.0 °F - 37.9 °F 96% 29.92 in 2.5 mi Calm Calm - 0.00 in Rain Light Rain
3:38 AM 39.0 °F - 37.9 °F 96% 29.92 in 3.0 mi Calm Calm - 0.00 in Rain Light Rain
3:53 AM 39.0 °F 36.8 °F 37.9 °F 96% 29.91 in 2.5 mi NNW 3.5 mph - 0.00 in Rain Light Rain
4:53 AM 39.0 °F - 37.9 °F 96% 29.90 in 1.8 mi Calm Calm - 0.01 in   Overcast
5:23 AM 37.9 °F 34.4 °F 37.0 °F 97% 29.87 in 1.8 mi SE 4.6 mph - 0.00 in   Overcast
5:30 AM 37.9 °F 35.5 °F 37.0 °F 97% 29.86 in 2.0 mi ESE 3.5 mph - 0.00 in   Overcast
5:53 AM 39.0 °F - 37.9 °F 96% 29.87 in 3.0 mi Calm Calm - 0.00 in   Overcast
6:00 AM 39.0 °F - 37.9 °F 96% 29.86 in 3.0 mi Calm Calm - N/A   Overcast
6:11 AM 39.0 °F - 37.9 °F 96% 29.86 in 3.0 mi Calm Calm - N/A   Overcast
6:17 AM 39.0 °F - 37.9 °F 96% 29.86 in 2.5 mi Calm Calm - 0.00 in Rain Light Rain
6:26 AM 39.9 °F 37.8 °F 37.9 °F 93% 29.86 in 4.0 mi SW 3.5 mph - 0.00 in Rain Light Rain
6:53 AM 39.9 °F 36.7 °F 37.9 °F 93% 29.88 in 5.0 mi WSW 4.6 mph - 0.01 in Rain Light Rain
7:16 AM 39.9 °F 35.8 °F 39.0 °F 97% 29.88 in 4.0 mi WSW 5.8 mph - 0.01 in Rain Light Rain
7:41 AM 39.9 °F 32.5 °F 39.0 °F 97% 29.89 in 7.0 mi West 12.7 mph - 0.02 in Rain Light Rain
7:50 AM 39.2 °F 32.0 °F 37.4 °F 93% 29.89 in 9.0 mi WNW 11.5 mph 18.4 mph 0.02 in Rain Light Rain
7:53 AM 39.9 °F 32.5 °F 37.9 °F 93% 29.90 in 10.0 mi WNW 12.7 mph 18.4 mph 0.03 in Rain Light Rain
8:01 AM 39.9 °F 31.8 °F 37.9 °F 93% 29.89 in 10.0 mi WNW 15.0 mph 20.7 mph 0.00 in Rain Light Rain
8:17 AM 39.0 °F 32.3 °F 37.0 °F 93% 29.89 in 9.0 mi NW 10.4 mph - 0.00 in Rain Light Rain
8:51 AM 33.8 °F 23.9 °F 32.0 °F 93% 29.93 in 1.8 mi WNW 15.0 mph 23.0 mph 0.01 in Snow Light Snow
8:53 AM 34.0 °F 26.0 °F 30.9 °F 89% 29.95 in 1.5 mi NW 10.4 mph 23.0 mph 0.01 in Snow Light Snow
8:59 AM 33.1 °F 23.0 °F 30.9 °F 92% 29.94 in 0.8 mi WNW 15.0 mph 21.9 mph 0.00 in Snow Light Snow
9:09 AM 30.9 °F 19.4 °F 28.9 °F 92% 29.95 in 0.5 mi WNW 17.3 mph 26.5 mph 0.00 in Fog , Snow Snow
9:24 AM 30.9 °F 21.2 °F 28.9 °F 92% 29.95 in 0.8 mi NW 12.7 mph - 0.00 in Snow Light Snow
9:40 AM 30.0 °F 21.1 °F 27.0 °F 88% 29.97 in 1.2 mi WNW 10.4 mph 23.0 mph 0.00 in Snow Light Snow
9:48 AM 28.4 °F 17.5 °F 26.6 °F 93% 29.97 in 0.5 mi WNW 13.8 mph 25.3 mph 0.00 in Fog , Snow Snow
9:53 AM 28.0 °F 16.1 °F 26.1 °F 92% 29.99 in 0.5 mi NW 16.1 mph 25.3 mph 0.00 in Fog , Snow Snow
10:01 AM 27.0 °F 15.6 °F 25.0 °F 92% 29.98 in 0.8 mi NW 13.8 mph 27.6 mph 0.00 in Snow Light Snow
10:17 AM 27.0 °F 15.2 °F 24.1 °F 89% 29.99 in 1.0 mi WNW 15.0 mph 24.2 mph 0.00 in Snow Light Snow
10:26 AM 26.1 °F 13.6 °F 23.0 °F 88% 30.00 in 1.8 mi WNW 16.1 mph 23.0 mph 0.00 in Snow Light Snow
10:33 AM 26.1 °F 14.0 °F 23.0 °F 88% 30.00 in 3.0 mi NW 15.0 mph 26.5 mph 0.00 in Snow Light Snow
10:53 AM 26.1 °F 14.5 °F 21.9 °F 84% 30.02 in 7.0 mi NW 13.8 mph 23.0 mph 0.00 in   Overcast
11:53 AM 23.0 °F 10.1 °F 18.0 °F 81% 30.03 in 6.0 mi NW 15.0 mph 31.1 mph N/A   Haze
12:46 PM 23.0 °F 9.6 °F 17.1 °F 78% 30.03 in 10.0 mi NW 16.1 mph 27.6 mph N/A   Overcast
12:53 PM 23.0 °F 9.2 °F 17.1 °F 78% 30.05 in 10.0 mi NW 17.3 mph 28.8 mph N/A   Overcast
1:53 PM 23.0 °F 10.6 °F 17.1 °F 78% 30.08 in 9.0 mi NW 13.8 mph 21.9 mph N/A   Overcast
2:53 PM 21.9 °F 10.4 °F 16.0 °F 78% 30.12 in 4.0 mi WNW 11.5 mph 21.9 mph 0.00 in Snow Light Snow
3:53 PM 21.9 °F 10.4 °F 16.0 °F 78% 30.15 in 2.5 mi WNW 11.5 mph 19.6 mph 0.00 in Snow Light Snow
4:16 PM 21.9 °F 9.8 °F 15.1 °F 75% 30.16 in 4.0 mi NW 12.7 mph 20.7 mph 0.00 in Snow Light Snow
4:35 PM 21.9 °F 8.7 °F 15.1 °F 75% 30.17 in 2.0 mi NW 15.0 mph 21.9 mph 0.00 in Snow Light Snow
4:48 PM 21.2 °F 6.8 °F 12.2 °F 68% 30.18 in 7.0 mi NW 17.3 mph 27.6 mph 0.00 in Snow Light Snow
4:53 PM 21.0 °F 7.6 °F 12.9 °F 71% 30.20 in 7.0 mi NW 15.0 mph 24.2 mph 0.00 in Snow Light Snow
5:10 PM 21.0 °F 10.6 °F 12.9 °F 71% 30.19 in 5.0 mi WNW 9.2 mph 19.6 mph 0.00 in Snow Light Snow
5:28 PM 21.0 °F 9.3 °F 14.0 °F 74% 30.21 in 4.0 mi NW 11.5 mph 20.7 mph 0.00 in Snow Light Snow
5:53 PM 21.0 °F 10.6 °F 14.0 °F 74% 30.23 in 7.0 mi NW 9.2 mph 17.3 mph 0.00 in Snow Light Snow
6:53 PM 21.0 °F 8.1 °F 12.9 °F 71% 30.27 in 7.0 mi NW 13.8 mph 23.0 mph 0.00 in Snow Light Snow
7:08 PM 21.0 °F 10.6 °F 14.0 °F 74% 30.26 in 8.0 mi NW 9.2 mph 21.9 mph 0.00 in Snow Light Snow
7:31 PM 21.0 °F 9.3 °F 14.0 °F 74% 30.27 in 8.0 mi WNW 11.5 mph - 0.00 in Snow Light Snow
7:53 PM 21.0 °F 8.6 °F 14.0 °F 74% 30.29 in 8.0 mi NW 12.7 mph 19.6 mph 0.00 in Snow Light Snow
8:05 PM 21.0 °F 10.6 °F 14.0 °F 74% 30.28 in 5.0 mi NW 9.2 mph 24.2 mph 0.00 in Snow Light Snow
8:13 PM 21.0 °F 9.3 °F 14.0 °F 74% 30.29 in 4.0 mi NW 11.5 mph 19.6 mph 0.00 in Snow Light Snow
8:42 PM 21.0 °F 9.9 °F 15.1 °F 78% 30.29 in 2.0 mi NNW 10.4 mph 17.3 mph 0.00 in Snow Light Snow
8:53 PM 21.0 °F 9.3 °F 15.1 °F 78% 30.31 in 3.0 mi NNW 11.5 mph 17.3 mph 0.00 in Snow Light Snow
9:00 PM 19.9 °F 7.9 °F 14.0 °F 78% 30.29 in 1.8 mi NNW 11.5 mph 21.9 mph 0.00 in Snow Light Snow
9:08 PM 19.9 °F 7.3 °F 14.0 °F 78% 30.30 in 3.0 mi NW 12.7 mph 21.9 mph 0.00 in Snow Light Snow
9:37 PM 19.9 °F 8.6 °F 12.0 °F 71% 30.32 in 9.0 mi NNW 10.4 mph - 0.00 in Snow Light Snow
9:53 PM 19.9 °F 7.3 °F 10.9 °F 68% 30.35 in 10.0 mi NNW 12.7 mph 18.4 mph 0.00 in   Overcast
10:37 PM 19.0 °F 6.8 °F 9.0 °F 65% 30.35 in 9.0 mi NNW 11.5 mph 19.6 mph 0.00 in Snow Light Snow
10:53 PM 18.0 °F 6.9 °F 9.0 °F 68% 30.38 in 10.0 mi NNW 9.2 mph 19.6 mph 0.00 in   Overcast
11:15 PM 18.0 °F 6.9 °F 8.1 °F 65% 30.37 in 10.0 mi NNW 9.2 mph 21.9 mph N/A   Scattered Clouds
11:53 PM 17.1 °F 10.0 °F 8.1 °F 68% 30.40 in 10.0 mi Variable 4.6 mph - N/A   Clear